Time,TemperatureF,DewpointF,PressureIn,WindDirection,WindDirectionDegrees,WindSpeedMPH,WindSpeedGustMPH,Humidity,HourlyPrecipIn,Conditions,Clouds,dailyrainin,SoftwareType,DateUTC
2013-04-10 00:11:00,49.7,43.0,29.76,WNW,301,7.0,15.0,79,0.00,,,0.00,weatherlink.com 1.10,2013-04-10 05:11:00,
2013-04-10 00:26:00,47.5,42.0,29.75,NW,319,11.0,20.0,80,0.00,,,0.00,weatherlink.com 1.10,2013-04-10 05:26:00,
2013-04-10 00:42:00,45.7,40.0,29.74,NW,314,8.0,17.0,80,0.00,,,0.00,weatherlink.com 1.10,2013-04-10 05:42:00,
2013-04-10 00:56:00,44.4,39.0,29.76,NW,306,7.0,20.0,81,0.00,,,0.00,weatherlink.com 1.10,2013-04-10 05:56:00,
2013-04-10 01:12:00,44.0,39.0,29.77,NW,326,13.0,19.0,82,0.00,,,0.00,weatherlink.com 1.10,2013-04-10 06:12:00,
2013-04-10 01:27:00,43.8,39.0,29.78,NW,319,8.0,17.0,82,0.00,,,0.00,weatherlink.com 1.10,2013-04-10 06:27:00,
2013-04-10 01:42:00,44.0,39.0,29.80,NW,316,0.0,11.0,83,0.00,,,0.00,weatherlink.com 1.10,2013-04-10 06:42:00,
2013-04-10 01:57:00,43.6,38.0,29.79,NW,317,8.0,15.0,82,0.00,,,0.00,weatherlink.com 1.10,2013-04-10 06:57:00,
2013-04-10 02:12:00,43.0,38.0,29.81,NW,307,7.0,14.0,83,0.00,,,0.00,weatherlink.com 1.10,2013-04-10 07:12:00,
2013-04-10 02:27:00,42.9,38.0,29.83,NW,323,8.0,16.0,83,0.00,,,0.00,weatherlink.com 1.10,2013-04-10 07:27:00,
2013-04-10 02:42:00,42.9,39.0,29.83,NNW,332,6.0,14.0,85,0.06,,,0.06,weatherlink.com 1.10,2013-04-10 07:42:00,
2013-04-10 02:57:00,42.5,39.0,29.82,NW,315,9.0,15.0,87,0.07,,,0.07,weatherlink.com 1.10,2013-04-10 07:57:00,
2013-04-10 03:12:00,42.2,39.0,29.82,NW,311,9.0,15.0,88,0.07,,,0.07,weatherlink.com 1.10,2013-04-10 08:12:00,
2013-04-10 03:27:00,42.2,39.0,29.82,NNW,342,5.0,12.0,88,0.07,,,0.07,weatherlink.com 1.10,2013-04-10 08:27:00,
2013-04-10 03:42:00,42.4,39.0,29.82,NW,313,7.0,12.0,89,0.01,,,0.07,weatherlink.com 1.10,2013-04-10 08:42:00,
2013-04-10 03:57:00,42.6,40.0,29.81,NW,320,5.0,12.0,89,0.00,,,0.07,weatherlink.com 1.10,2013-04-10 08:57:00,
2013-04-10 04:12:00,42.8,40.0,29.84,NW,304,5.0,12.0,89,0.00,,,0.07,weatherlink.com 1.10,2013-04-10 09:12:00,
2013-04-10 04:27:00,42.8,40.0,29.86,WNW,289,7.0,15.0,89,0.00,,,0.07,weatherlink.com 1.10,2013-04-10 09:27:00,
2013-04-10 04:42:00,42.1,39.0,29.82,WNW,302,7.0,20.0,89,0.01,,,0.08,weatherlink.com 1.10,2013-04-10 09:42:00,
2013-04-10 04:57:00,41.1,38.0,29.83,NW,314,6.0,16.0,89,0.01,,,0.08,weatherlink.com 1.10,2013-04-10 09:57:00,
2013-04-10 05:12:00,40.0,37.0,29.83,NNW,335,5.0,21.0,89,0.01,,,0.08,weatherlink.com 1.10,2013-04-10 10:12:00,
2013-04-10 05:27:00,39.6,37.0,29.83,NW,313,0.0,14.0,90,0.01,,,0.08,weatherlink.com 1.10,2013-04-10 10:27:00,
2013-04-10 05:42:00,39.0,36.0,29.81,NNE,12,12.0,17.0,90,0.00,,,0.08,weatherlink.com 1.10,2013-04-10 10:42:00,
2013-04-10 05:57:00,39.1,37.0,29.83,North,11,8.0,14.0,90,0.00,,,0.08,weatherlink.com 1.10,2013-04-10 10:57:00,
2013-04-10 06:12:00,39.2,37.0,29.84,NW,318,3.0,15.0,90,0.04,,,0.12,weatherlink.com 1.10,2013-04-10 11:12:00,
2013-04-10 06:27:00,39.1,37.0,29.85,NNW,338,6.0,10.0,90,0.08,,,0.16,weatherlink.com 1.10,2013-04-10 11:27:00,
2013-04-10 06:42:00,38.9,37.0,29.84,NW,323,9.0,10.0,91,0.14,,,0.22,weatherlink.com 1.10,2013-04-10 11:42:00,
2013-04-10 06:57:00,38.9,37.0,29.85,NW,319,6.0,11.0,91,0.16,,,0.24,weatherlink.com 1.10,2013-04-10 11:57:00,
2013-04-10 07:12:00,39.0,37.0,29.88,NW,324,1.0,15.0,92,0.12,,,0.24,weatherlink.com 1.10,2013-04-10 12:12:00,
2013-04-10 07:27:00,38.9,37.0,29.87,NNW,329,7.0,10.0,92,0.08,,,0.24,weatherlink.com 1.10,2013-04-10 12:27:00,
2013-04-10 07:42:00,39.0,37.0,29.93,NW,304,6.0,11.0,92,0.02,,,0.24,weatherlink.com 1.10,2013-04-10 12:42:00,
2013-04-10 07:57:00,38.7,36.0,29.86,NNE,19,14.0,14.0,91,0.04,,,0.28,weatherlink.com 1.10,2013-04-10 12:57:00,
2013-04-10 08:12:00,38.0,36.0,29.86,North,5,16.0,17.0,91,0.07,,,0.31,weatherlink.com 1.10,2013-04-10 13:12:00,
2013-04-10 08:27:00,37.8,36.0,29.91,NW,310,0.0,12.0,91,0.08,,,0.32,weatherlink.com 1.10,2013-04-10 13:27:00,
2013-04-10 08:42:00,37.9,36.0,29.89,NW,305,5.0,12.0,92,0.08,,,0.32,weatherlink.com 1.10,2013-04-10 13:42:00,
2013-04-10 08:57:00,37.8,36.0,29.91,NW,312,2.0,11.0,92,0.04,,,0.32,weatherlink.com 1.10,2013-04-10 13:57:00,
2013-04-10 09:12:00,37.8,36.0,29.87,NNW,327,9.0,13.0,92,0.01,,,0.32,weatherlink.com 1.10,2013-04-10 14:12:00,
2013-04-10 09:27:00,37.8,36.0,29.89,NW,311,0.0,11.0,91,0.00,,,0.32,weatherlink.com 1.10,2013-04-10 14:27:00,
2013-04-10 09:42:00,37.6,35.0,29.90,NW,320,9.0,13.0,91,0.00,,,0.32,weatherlink.com 1.10,2013-04-10 14:42:00,
2013-04-10 09:57:00,37.3,35.0,29.88,NNW,330,7.0,14.0,91,0.04,,,0.36,weatherlink.com 1.10,2013-04-10 14:57:00,
2013-04-10 10:12:00,37.2,35.0,29.91,NW,306,0.0,13.0,91,0.04,,,0.36,weatherlink.com 1.10,2013-04-10 15:12:00,
2013-04-10 10:28:00,37.2,35.0,29.89,NNW,336,12.0,16.0,91,0.04,,,0.36,weatherlink.com 1.10,2013-04-10 15:28:00,
2013-04-10 10:43:00,36.9,35.0,29.86,North,355,2.0,14.0,91,0.04,,,0.36,weatherlink.com 1.10,2013-04-10 15:43:00,
2013-04-10 10:58:00,36.7,34.0,29.88,NW,316,8.0,16.0,91,0.00,,,0.36,weatherlink.com 1.10,2013-04-10 15:58:00,
2013-04-10 11:13:00,37.0,35.0,29.91,NW,322,7.0,14.0,91,0.00,,,0.36,weatherlink.com 1.10,2013-04-10 16:13:00,
2013-04-10 11:28:00,37.3,35.0,29.91,NW,321,7.0,14.0,90,0.00,,,0.36,weatherlink.com 1.10,2013-04-10 16:28:00,
2013-04-10 11:43:00,37.5,35.0,29.90,NW,313,0.0,14.0,90,0.01,,,0.37,weatherlink.com 1.10,2013-04-10 16:43:00,
2013-04-10 11:58:00,37.7,35.0,29.91,NW,308,7.0,11.0,90,0.01,,,0.37,weatherlink.com 1.10,2013-04-10 16:58:00,
2013-04-10 12:13:00,37.5,35.0,29.91,NW,307,0.0,12.0,90,0.01,,,0.37,weatherlink.com 1.10,2013-04-10 17:13:00,
2013-04-10 12:28:00,37.4,35.0,29.93,WNW,297,0.0,13.0,90,0.01,,,0.37,weatherlink.com 1.10,2013-04-10 17:28:00,
2013-04-10 12:43:00,37.1,35.0,29.93,NW,319,8.0,12.0,90,0.00,,,0.37,weatherlink.com 1.10,2013-04-10 17:43:00,
2013-04-10 12:58:00,37.2,35.0,29.91,NW,319,11.0,11.0,91,0.00,,,0.37,weatherlink.com 1.10,2013-04-10 17:58:00,
2013-04-10 13:13:00,37.1,35.0,29.94,WNW,299,0.0,11.0,91,0.00,,,0.37,weatherlink.com 1.10,2013-04-10 18:13:00,
2013-04-10 13:28:00,37.1,35.0,29.89,NW,311,9.0,14.0,91,0.01,,,0.38,weatherlink.com 1.10,2013-04-10 18:28:00,
2013-04-10 13:43:00,37.7,35.0,29.89,NW,314,7.0,14.0,91,0.01,,,0.38,weatherlink.com 1.10,2013-04-10 18:43:00,
2013-04-10 13:58:00,38.2,36.0,29.85,NW,313,16.0,17.0,91,0.01,,,0.38,weatherlink.com 1.10,2013-04-10 18:58:00,
2013-04-10 14:13:00,38.7,36.0,29.88,NNW,337,12.0,17.0,90,0.01,,,0.38,weatherlink.com 1.10,2013-04-10 19:13:00,
2013-04-10 14:28:00,38.6,36.0,29.89,WNW,299,9.0,12.0,89,0.00,,,0.38,weatherlink.com 1.10,2013-04-10 19:28:00,
2013-04-10 14:43:00,38.0,35.0,29.92,NW,309,0.0,10.0,89,0.00,,,0.38,weatherlink.com 1.10,2013-04-10 19:43:00,
2013-04-10 14:58:00,37.5,35.0,29.91,North,360,10.0,16.0,89,0.02,,,0.40,weatherlink.com 1.10,2013-04-10 19:58:00,
2013-04-10 15:13:00,37.1,35.0,29.87,NW,309,7.0,14.0,90,0.04,,,0.42,weatherlink.com 1.10,2013-04-10 20:13:00,
2013-04-10 15:28:00,37.1,35.0,29.89,NW,316,7.0,9.0,90,0.06,,,0.44,weatherlink.com 1.10,2013-04-10 20:28:00,
2013-04-10 15:43:00,36.8,35.0,29.84,NW,315,7.0,16.0,91,0.10,,,0.48,weatherlink.com 1.10,2013-04-10 20:43:00,
2013-04-10 15:58:00,36.6,34.0,29.85,NW,321,0.0,12.0,91,0.12,,,0.52,weatherlink.com 1.10,2013-04-10 20:58:00,
2013-04-10 16:13:00,36.6,35.0,29.89,NW,313,3.0,10.0,92,0.11,,,0.53,weatherlink.com 1.10,2013-04-10 21:13:00,
2013-04-10 16:28:00,36.9,35.0,29.88,West,275,4.0,12.0,92,0.09,,,0.53,weatherlink.com 1.10,2013-04-10 21:28:00,
2013-04-10 16:43:00,37.0,35.0,29.86,NW,313,7.0,14.0,91,0.05,,,0.53,weatherlink.com 1.10,2013-04-10 21:43:00,
2013-04-10 16:58:00,37.0,34.0,29.86,NW,306,9.0,16.0,90,0.01,,,0.53,weatherlink.com 1.10,2013-04-10 21:58:00,
2013-04-10 17:13:00,37.3,34.0,29.85,NW,320,8.0,15.0,89,0.00,,,0.53,weatherlink.com 1.10,2013-04-10 22:13:00,
2013-04-10 17:28:00,37.5,35.0,29.84,NW,309,8.0,15.0,89,0.00,,,0.53,weatherlink.com 1.10,2013-04-10 22:28:00,
2013-04-10 17:43:00,37.7,35.0,29.87,NW,315,12.0,17.0,88,0.00,,,0.53,weatherlink.com 1.10,2013-04-10 22:43:00,
2013-04-10 17:58:00,37.9,35.0,29.88,WNW,296,6.0,12.0,88,0.00,,,0.53,weatherlink.com 1.10,2013-04-10 22:58:00,
2013-04-10 18:13:00,38.0,35.0,29.88,NW,315,6.0,14.0,87,0.00,,,0.53,weatherlink.com 1.10,2013-04-10 23:13:00,
2013-04-10 18:28:00,38.1,35.0,29.88,NW,321,5.0,15.0,87,0.00,,,0.53,weatherlink.com 1.10,2013-04-10 23:28:00,
2013-04-10 18:43:00,38.2,35.0,29.89,NW,314,0.0,9.0,87,0.00,,,0.53,weatherlink.com 1.10,2013-04-10 23:43:00,
2013-04-10 18:58:00,37.9,34.0,29.88,NNW,333,8.0,12.0,86,0.00,,,0.53,weatherlink.com 1.10,2013-04-10 23:58:00,
2013-04-10 19:13:00,37.8,34.0,29.88,NW,311,4.0,11.0,86,0.00,,,0.53,weatherlink.com 1.10,2013-04-11 00:13:00,
2013-04-10 19:28:00,37.5,34.0,29.88,NW,319,3.0,11.0,86,0.00,,,0.53,weatherlink.com 1.10,2013-04-11 00:28:00,
2013-04-10 19:43:00,37.6,34.0,29.90,NW,322,2.0,6.0,87,0.00,,,0.53,weatherlink.com 1.10,2013-04-11 00:43:00,
2013-04-10 19:58:00,37.3,34.0,29.92,NW,308,0.0,8.0,87,0.00,,,0.53,weatherlink.com 1.10,2013-04-11 00:58:00,
2013-04-10 20:13:00,37.1,34.0,29.93,WNW,302,6.0,11.0,87,0.00,,,0.53,weatherlink.com 1.10,2013-04-11 01:13:00,
2013-04-10 20:28:00,37.0,34.0,29.93,NW,310,7.0,10.0,87,0.00,,,0.53,weatherlink.com 1.10,2013-04-11 01:28:00,
2013-04-10 20:43:00,36.6,33.0,29.93,WNW,303,0.0,8.0,86,0.00,,,0.53,weatherlink.com 1.10,2013-04-11 01:43:00,
2013-04-10 20:58:00,36.4,33.0,29.93,WNW,298,0.0,5.0,86,0.00,,,0.53,weatherlink.com 1.10,2013-04-11 01:58:00,
2013-04-10 21:13:00,36.1,32.0,29.94,NW,307,6.0,12.0,86,0.00,,,0.53,weatherlink.com 1.10,2013-04-11 02:13:00,
2013-04-10 21:28:00,36.0,32.0,29.95,WNW,288,0.0,9.0,86,0.00,,,0.53,weatherlink.com 1.10,2013-04-11 02:28:00,
2013-04-10 21:43:00,35.9,32.0,29.94,NW,309,2.0,14.0,85,0.00,,,0.53,weatherlink.com 1.10,2013-04-11 02:43:00,
2013-04-10 21:58:00,35.8,32.0,29.95,WNW,301,1.0,10.0,85,0.00,,,0.53,weatherlink.com 1.10,2013-04-11 02:58:00,
2013-04-10 22:14:00,35.7,32.0,29.95,NNW,336,6.0,13.0,85,0.00,,,0.53,weatherlink.com 1.10,2013-04-11 03:14:00,
2013-04-10 22:44:00,35.5,32.0,29.95,NW,312,0.0,11.0,86,0.00,,,0.53,weatherlink.com 1.10,2013-04-11 03:44:00,
2013-04-10 22:59:00,35.3,32.0,29.94,NW,304,0.0,13.0,86,0.00,,,0.53,weatherlink.com 1.10,2013-04-11 03:59:00,
2013-04-10 23:14:00,35.2,31.0,29.95,WNW,302,2.0,12.0,86,0.00,,,0.53,weatherlink.com 1.10,2013-04-11 04:14:00,
2013-04-10 23:29:00,35.2,32.0,29.96,WNW,302,0.0,9.0,87,0.00,,,0.53,weatherlink.com 1.10,2013-04-11 04:29:00,
2013-04-10 23:44:00,35.1,32.0,29.96,NW,313,0.0,8.0,87,0.00,,,0.53,weatherlink.com 1.10,2013-04-11 04:44:00,
2013-04-10 23:59:00,35.2,31.0,29.96,WNW,300,1.0,10.0,86,0.00,,,0.00,weatherlink.com 1.10,2013-04-11 04:59:00,